Location: Recife
(8.0585°S, 34.8848°W)
Time: 09:38:29
(UTC-03:00)

Courier 1B Rocket - Pass Details

Date: 15 April 2026
Orbit: 920 x 1201 km, 28.2° (Epoch: 13 May)

Event Time Altitude Azimuth Distance (km) Brightness Sun altitude
Rises 12:22:34 0° 230° (SW) 4,021 8.2 66.1°
Reaches altitude 10° 12:25:38 10° 221° (SW) 3,088 7.7 65.6°
Maximum altitude 12:32:35 35° 157° (SSE) 1,817 6.6 64.4°
Drops below altitude 10° 12:39:37 10° 94° (E) 3,126 7.5 63.2°
Sets 12:42:44 0° 85° (E) 4,075 8.0 62.6°
